GW6233 Weather Reports


time (UTC)temp
C
wind
direction
speed
KPH
gust
KPH
rain 1hr
cm
rain 24hr
cm
rain mn
cm
humidity
%
barometer
mb
20260505035102 15 183 1.6 3.2 0.00 0.00 0.00 72 1010.0
20260505034100 15 163 1.6 6.4 0.00 0.00 0.00 72 1009.9
20260505033058 15 165 1.6 4.8 0.00 0.00 0.00 71 1010.0
20260505032056 15 161 1.6 3.2 0.00 0.00 0.00 71 1010.2
20260505031054 15 170 1.6 3.2 0.00 0.00 0.00 70 1010.3
20260505030051 15 155 1.6 3.2 0.00 0.00 0.00 70 1010.3
20260505025110 15 173 1.6 4.8 0.00 0.00 0.00 69 1010.4
20260505024049 15 151 1.6 3.2 0.00 0.00 0.00 68 1010.3
20260505023046 15 160 1.6 4.8 0.00 0.00 0.00 67 1010.3
20260505022045 15 150 1.6 3.2 0.00 0.00 0.00 66 1010.3
20260505021041 15 147 1.6 3.2 0.00 0.00 0.00 65 1010.4
20260505020040 16 139 1.6 3.2 0.00 0.00 0.00 63 1010.4
20260505015038 16 159 1.6 3.2 0.00 0.00 0.00 61 1010.3
20260505014037 16 140 1.6 3.2 0.00 0.00 0.00 59 1010.3
20260505013034 16 145 1.6 1.6 0.00 0.00 0.00 57 1010.2
20260505012032 16 135 1.6 1.6 0.00 0.00 0.00 56 1010.2
20260505011030 17 147 1.6 3.2 0.00 0.00 0.00 55 1010.0
20260505010027 17 151 1.6 1.6 0.00 0.00 0.00 54 1009.9
20260505005026 17 135 1.6 1.6 0.00 0.00 0.00 53 1009.9
20260505004024 17 126 1.6 3.2 0.00 0.00 0.00 53 1009.8
20260505003023 18 143 1.6 6.4 0.00 0.00 0.00 52 1009.7
20260505002020 18 150 1.6 1.6 0.00 0.00 0.00 51 1009.6
20260505001018 18 151 1.6 1.6 0.00 0.00 0.00 50 1009.4
20260505000017 19 153 1.6 1.6 0.00 0.00 0.00 48 1009.4
20260504235014 20 159 1.6 1.6 0.00 0.00 0.00 48 1009.4
20260504234011 20 143 1.6 3.2 0.00 0.00 0.00 46 1009.4
20260504233009 20 176 1.6 3.2 0.00 0.00 0.00 46 1009.4
20260504232007 21 176 1.6 3.2 0.00 0.00 0.00 45 1009.3
20260504231008 21 156 1.6 4.8 0.00 0.00 0.00 44 1009.3
20260504230004 21 211 1.6 6.4 0.00 0.00 0.00 44 1009.3
20260504225001 22 198 1.6 6.4 0.00 0.00 0.00 42 1009.3
20260504224001 22 204 1.6 6.4 0.00 0.00 0.00 42 1009.3
20260504222958 22 207 1.6 4.8 0.00 0.00 0.00 41 1009.4
20260504221955 23 206 1.6 9.7 0.00 0.00 0.00 41 1009.3
20260504220954 24 222 1.6 4.8 0.00 0.00 0.00 40 1009.3
20260504215953 24 219 3.2 9.7 0.00 0.00 0.00 39 1009.3
20260504214950 24 220 4.8 9.7 0.00 0.00 0.00 39 1009.3
20260504214008 25 211 3.2 9.7 0.00 0.00 0.00 39 1009.3
20260504212946 24 214 3.2 6.4 0.00 0.00 0.00 39 1009.3
20260504211943 25 202 3.2 9.7 0.00 0.00 0.00 39 1009.2
20260504210942 25 209 1.6 9.7 0.00 0.00 0.00 39 1009.2
20260504205940 25 215 3.2 9.7 0.00 0.00 0.00 38 1009.2
20260504204939 25 215 3.2 9.7 0.00 0.00 0.00 39 1009.1
20260504203937 25 217 4.8 11.3 0.00 0.00 0.00 38 1009.2
20260504202935 25 213 3.2 6.4 0.00 0.00 0.00 38 1009.2
20260504201933 25 219 4.8 9.7 0.00 0.00 0.00 38 1009.4
20260504200951 25 227 1.6 6.4 0.00 0.00 0.00 39 1009.5
20260504195928 25 202 1.6 9.7 0.00 0.00 0.00 39 1009.5
20260504194927 25 199 1.6 6.4 0.00 0.00 0.00 39 1009.6
20260504193924 25 189 3.2 6.4 0.00 0.00 0.00 39 1009.7
20260504192943 25 235 3.2 9.7 0.00 0.00 0.00 39 1009.9
20260504191921 25 235 3.2 9.7 0.00 0.00 0.00 40 1009.9
20260504190918 25 236 3.2 9.7 0.00 0.00 0.00 39 1010.0
20260504185916 24 227 1.6 6.4 0.00 0.00 0.00 39 1010.3
20260504184918 24 226 4.8 11.3 0.00 0.00 0.00 40 1010.5
20260504183913 24 212 3.2 11.3 0.00 0.00 0.00 40 1010.6
20260504182910 24 231 3.2 9.7 0.00 0.00 0.00 40 1010.7
20260504181929 24 233 3.2 11.3 0.00 0.00 0.00 41 1010.9
20260504180906 23 232 3.2 9.7 0.00 0.00 0.00 41 1011.0
20260504175905 23 223 4.8 9.7 0.00 0.00 0.00 40 1011.2
20260504174903 23 210 3.2 9.7 0.00 0.00 0.00 40 1011.2
20260504173901 23 217 3.2 11.3 0.00 0.00 0.00 42 1011.4
20260504172859 22 208 3.2 6.4 0.00 0.00 0.00 43 1011.5
20260504171857 22 220 3.2 9.7 0.00 0.00 0.00 42 1011.6
20260504170855 22 259 3.2 9.7 0.00 0.00 0.00 43 1011.7
20260504150831 17 215 1.6 6.4 0.00 0.00 0.00 59 1012.7
20260504140858 15 218 3.2 6.4 0.00 0.00 0.00 65 1012.9
20260504081727 7 203 1.6 3.2 0.00 0.00 0.00 71 1014.1
20260504080705 7 207 1.6 3.2 0.00 0.00 0.00 71 1014.1
20260504050631 7 199 1.6 3.2 0.00 0.00 0.00 66 1013.8
20260504045628 7 207 1.6 3.2 0.00 0.00 0.00 66 1013.8
20260504044626 7 210 1.6 4.8 0.00 0.00 0.00 67 1013.6
20260504043625 7 194 1.6 3.2 0.00 0.00 0.00 67 1013.6
20260504042622 7 171 1.6 3.2 0.00 0.00 0.00 67 1013.5
20260504041620 7 176 1.6 1.6 0.00 0.00 0.00 67 1013.3
20260504040618 6 185 1.6 1.6 0.00 0.00 0.00 67 1013.3